User: anonymous
Location: Unspecified
(0.0000°N, 0.0000°E)
Time: 13:51:05
(UTC+00:00)
Language:

HST - Orbit

View from above orbital plane
View from above orbital plane
View from above satellite
View from above satellite

Ground track
Ground track

The orbit data is extracted from the following two-line orbital elements,

1 20580U 90037B   14271.87818247  .00002236  00000-0  13868-3 0  1246
2 20580 028.4705 075.3265 0002989 321.6227 188.1210 15.05808565140360
Epoch (UTC): 28 September 2014 21:04:34
Eccentricity: 0.0002989
inclination: 28.4705°
perigee height: 547 km
apogee height: 551 km
right ascension of ascending node: 75.3265°
argument of perigee: 321.6227°
revolutions per day: 15.05808565
mean anomaly at epoch: 188.1210°
orbit number at epoch: 14036

The dashed part of the orbit path shows where the satellite is in the earth's shadow,  

DLR